Location: El Mouella
(16.4949°N, 9.1594°W)
Time: 14:17:04
(UTC+00:00)

YAOGAN 1 - Pass Details

Date: 02 June 2020
Orbit: 618 x 620 km, 97.9° (Epoch: 05 July)

Event Time Altitude Azimuth Distance (km) Brightness Sun altitude
Rises 19:25:56 0° 165° (SSE) 2,883 5.6 -5.1°
Reaches altitude 10° 19:28:07 10° 164° (SSE) 1,979 4.8 -5.5°
Maximum altitude 19:32:25 77° 78° (ENE) 638 2.5 -6.5°
Drops below altitude 10° 19:36:44 10° 352° (N) 1,983 5.7 -7.4°
Sets 19:38:55 0° 351° (N) 2,889 6.5 -7.9°
